Location: Churchill Northern Studies Centre
(58.7378°N, 93.8201°W)
Time: 06:14:59
(UTC-05:00)

Vanguard 3 - All Passes

Search period start: 18 October 2017 00:00
Search period end: 28 October 2017 00:00
Orbit: 510 x 3263 km, 33.3° (Epoch: 17 October)

Date Brightness Start Highest point End Pass type
(mag) Time Alt. Az. Time Alt. Az. Time Alt. Az.
20 Oct - 07:14:03 10° SSW 07:14:51 10° S 07:15:37 10° S visible
21 Oct - 05:57:58 10° SSW 06:01:36 12° S 06:04:44 10° SSE visible
22 Oct - 04:43:49 10° S 04:48:04 12° SSE 04:51:45 10° SSE visible
22 Oct - 06:54:51 10° SSW 06:58:54 13° S 07:02:18 10° SSE visible
23 Oct - 03:31:49 10° SSE 03:34:20 11° SSE 03:36:40 10° SSE visible
23 Oct - 05:39:20 10° SSW 05:45:32 15° S 05:50:29 10° SSE visible
23 Oct - 07:54:03 10° SW 07:55:59 11° SSW 07:57:44 10° S daylight
24 Oct - 04:24:41 10° SSW 04:31:52 15° S 04:37:38 10° SE visible
24 Oct - 06:36:52 10° SW 06:42:52 15° SSW 06:47:36 10° SSE visible
25 Oct - 03:11:14 10° S 03:17:57 14° SSE 03:23:39 10° SE visible
25 Oct - 05:21:09 10° SW 05:29:22 18° S 05:35:38 10° SE visible
25 Oct - 07:36:01 10° SW 07:39:55 12° SSW 07:43:14 10° S visible
26 Oct - 02:00:28 10° SSE 02:03:57 11° SSE 02:07:11 10° SE visible
26 Oct - 04:06:11 10° SSW 04:15:32 18° S 04:22:49 10° SE visible
26 Oct - 06:19:06 10° SW 06:26:42 17° SSW 06:32:31 10° SSE visible
27 Oct - 02:52:10 10° SSW 03:01:27 17° SSE 03:09:04 10° SE visible
27 Oct - 05:03:11 10° SW 05:13:04 20° S 05:20:29 10° SE visible
27 Oct - 07:18:25 10° SW 07:23:44 14° SSW 07:28:05 10° S visible
